Zurück zum Katalog

CZ-3 DEB

LostHEO
NORAD 29447·DEBRIS·🇨🇳 China

Gestartet Feb 1, 1986 von Xichang Satellite Launch Center

Loading…

Nächste Überflüge (nächste 24 Stunden)

TLE

VeraltetSource: Space-Track

Epoche: Dec 2, 2022, 00:53 UTC

1 29447U 86010F   22336.03748428  .00000230  00000-0  23339-2 0  9990
2 29447  30.4413 210.2706 7147500 212.4943  70.2286  2.31338053148804

Verfolge CZ-3 DEB in Echtzeit mit AllMySat

Download on the App Store